Tracking 28790 objects as of 19-Apr-2024
HD Live streaming from Space Station
objects crossing your sky now

STARLINK-2278

Track STARLINK-2278 now!
10-day predictions
STARLINK-2278 is classified as:


NORAD ID: 48026
Int'l Code: 2021-024BB
Perigee: 553.4 km
Apogee: 555.4 km
Inclination: 53.1 °
Period: 95.6 minutes
Semi major axis: 6925 km
RCS: Unknown
Launch date: March 24, 2021
Source: United States (US)
Launch site: AIR FORCE EASTERN TEST RANGE (AFETR)
Your satellite tracking list
Your tracking list is empty




NASA's NSSDC Master Catalog

Two Line Element Set (TLE):
1 48026U 21024BB  24110.49053322  .00003161  00000-0  23108-3 0  9993
2 48026  53.0554 190.5433 0001482  51.1347 308.9774 15.06389268170144
Source of the keplerian elements: AFSPC